Location: Champcontier
(44.4500°N, 6.4167°E)
Time: 06:25:08
(UTC+00:00)

Daily predictions for brighter satellites

Satellite Brightness Start Highest point End
(mag) Time Altitude Azimuth Time Altitude Azimuth Time Altitude Azimuth
Cosmos 1867 3.6 19:02:00 10° SSW 19:07:23 71° ESE 19:12:50 10° NE
MOS 1 Rocket 3.7 19:03:40 10° NNE 19:09:08 90° W 19:14:20 10° SSW
CENTAUR R/B 3.2 19:04:19 10° SSE 19:09:11 29° ESE 19:14:43 10° NE
Cosmos 1666 Rocket 4.0 19:05:39 10° SSE 19:09:41 40° E 19:13:45 10° NNE
Cosmos 1954 Rocket 4.3 19:07:12 10° S 19:12:13 45° ESE 19:17:17 10° NNE
DMSP B5D2-2 4.2 19:10:20 10° NNE 19:15:28 53° E 19:20:35 10° S
IRIDIUM 103 4.3 19:10:40 10° S 19:15:52 74° E 19:21:05 10° N
FREGAT/IRIS 2.1 19:13:55 10° SSE 19:16:32 80° ENE 19:19:10 10° N
Cosmos 1821 Rocket 4.0 19:10:58 10° S 19:17:05 73° E 19:23:20 10° NNE
Ariane Rocket 3.1 19:12:30 10° SSE 19:17:34 89° W 19:22:39 10° NNW
Cosmos 405 Rocket 4.4 19:15:35 10° ESE 19:17:43 15° E 19:19:51 10° NE
Intercosmos 25 2.9 19:15:56 10° N 19:19:32 65° E 19:22:40 10° SSE
Cosmos 1805 Rocket 3.9 19:15:48 10° SSW 19:20:14 75° W 19:24:44 10° N
Cosmos 1812 2.9 19:17:17 10° NNW 19:21:07 75° W 19:24:57 10° S
Cosmos 407 Rocket 3.9 19:17:16 10° SSW 19:22:34 73° WNW 19:27:51 10° NNE
SJ-6B 2.9 19:21:32 10° SSE 19:25:33 88° WSW 19:29:31 10° NNW
Cosmos 1862 4.4 19:22:41 10° SSW 19:26:37 50° WNW 19:30:36 10° N
Cosmos 1190 Rocket 4.2 19:21:29 10° SSW 19:26:46 82° WNW 19:32:07 10° NNE
deb Kosmos-1763 4.1 19:24:28 10° SSW 19:28:05 85° WNW 19:31:46 10° NNE
NOSS 2 (A) 4.4 19:26:07 10° NNW 19:28:36 48° NE 19:30:21 15° ESE
Cosmos 1140 Rocket 3.6 19:23:21 10° SSW 19:28:36 82° WNW 19:33:53 10° NNE
Resurs 1-3 3.8 19:26:24 10° SSE 19:30:40 54° ENE 19:34:58 10° N
OBJECT-B 0.9 19:30:03 10° SSE 19:33:15 57° ENE 19:36:31 10° N
Cosmos 1441 Rocket 4.5 19:30:16 10° SSW 19:33:52 44° WNW 19:37:29 10° N
Cosmos 2084 Rocket 4.0 19:30:24 10° S 19:34:07 32° ESE 19:37:56 10° NE
Cosmos 1633 Rocket 3.0 19:32:07 10° S 19:36:29 65° E 19:40:52 10° NNE
Cosmos 1184 Rocket 3.0 19:34:11 10° S 19:37:22 49° E 19:40:35 10° NNE
Cosmos 921 Rocket 3.2 19:37:43 10° N 19:41:49 50° ENE 19:45:04 15° SE
Cosmos 1535 Rocket 4.4 19:36:51 10° S 19:42:53 66° E 19:48:56 10° NNE
Cosmos 2123 Rocket 4.0 19:36:59 10° N 19:43:13 69° E 19:49:27 10° SSE
Meteor 1-27 Rocket 4.2 19:42:34 10° NNW 19:48:30 70° W 19:54:23 10° S
Cosmos 1605 Rocket 4.1 19:45:29 10° SSE 19:51:20 51° E 19:57:12 10° NNE
Okean 1 4.2 19:50:32 10° N 19:54:12 32° ENE 19:56:09 21° ESE
Cosmos 1707 Rocket 4.3 19:50:12 10° NNW 19:54:26 54° W 19:58:38 10° S
CZ-2C R/B 3.0 19:49:56 10° N 19:55:05 66° WNW 20:00:18 10° SSW
NOSS 3-2 (A) 3.5 19:49:42 10° SW 19:55:22 83° NW 20:01:53 10° NE
Cosmos 192 4.4 19:52:17 10° NNW 19:57:13 78° WSW 20:01:41 12° SSE
USA 267 3.7 19:52:57 10° ENE 19:58:52 35° SE 20:04:45 10° SSW
SL-4 R/B 3.7 19:59:20 10° WNW 20:02:52 29° N 20:06:12 10° NE
SL-16 R/B 2.7 19:57:32 10° NNW 20:03:00 46° ENE 20:06:28 21° ESE
BREEZE-M DEB (TANK) 3.3 20:01:26 10° WNW 20:03:59 43° N 20:09:55 10° ENE
BREEZE-M DEB (TANK) 4.2 20:01:56 10° W 20:04:40 15° WSW 20:06:31 10° SSW
SL-27 R/B 3.1 20:04:28 29° ESE 20:04:53 30° ESE 20:07:51 10° NE
NOSS 3-2 (C) 3.3 20:00:24 10° SSW 20:06:01 75° SE 20:12:27 10° NE
Cosmos 1470 Rocket 3.4 20:01:55 10° S 20:06:18 76° E 20:10:40 10° NNE
Cosmos 2242 Rocket 3.9 20:02:38 10° N 20:06:54 47° ENE 20:09:08 25° SE
Cosmos 2082 Rocket 3.4 20:05:15 10° SW 20:10:40 45° WNW 20:16:07 10° NNE
BREEZE-M DEB (TANK) 3.6 20:09:08 10° WNW 20:11:29 26° N 20:12:31 17° NE
Meteor 1-14 Rocket 4.5 20:13:21 15° SSE 20:18:04 53° E 20:23:52 10° NNE
ERS-1 Rocket 4.0 20:16:14 23° ESE 20:18:11 30° ENE 20:22:32 10° N
Meteor 1-4 Rocket 4.2 20:15:19 10° NNW 20:18:23 30° W 20:21:26 10° SSW
Cosmos 2322 Rocket 2.6 20:14:48 10° NNW 20:20:23 51° ENE 20:23:15 27° ESE
Cosmos 1862 Rocket 4.1 20:17:53 10° NNW 20:22:15 57° W 20:25:58 14° S
Cosmos 1850 Rocket 3.9 20:17:46 10° SSW 20:23:03 74° ESE 20:28:19 10° NNE
Meteor 1-25 Rocket 4.3 20:19:17 10° SSW 20:24:50 82° W 20:30:32 10° N
Cosmos 1500 4.3 20:25:36 27° E 20:25:36 27° E 20:28:27 10° NNE
SPOT 1/Viking Rocket 3.8 20:23:32 29° SE 20:26:01 53° ENE 20:31:06 10° N
USA 32 4.1 20:22:18 10° S 20:27:32 77° W 20:32:47 10° N
Cosmos 841 Rocket 4.0 20:22:52 10° N 20:27:53 44° ENE 20:29:56 30° ESE
Terra 3.2 20:27:56 22° E 20:29:07 24° ENE 20:32:53 10° NNE
Cosmos 2360 Rocket 3.1 20:24:16 10° N 20:29:26 34° NE 20:31:48 25° E
USA 276 2.3 20:26:28 10° WNW 20:29:38 62° NNE 20:30:10 50° ENE
X-37B 0.6 20:27:05 10° W 20:30:12 62° SSW 20:30:22 60° S
Meteor 1-18 Rocket 4.1 20:25:04 10° N 20:30:40 81° E 20:33:52 26° SSE
ATLAS 3B R/B 2.9 20:25:00 10° S 20:31:08 43° ESE 20:37:18 10° NE
IGS 5A 3.4 20:29:39 37° SSE 20:31:11 71° ENE 20:35:20 10° N
Cosmos 1238 Rocket 2.6 20:30:33 26° SSW 20:31:58 56° W 20:34:56 10° N
USA 234 4.1 20:29:00 14° E 20:34:11 43° NNE 20:40:16 10° NW
Cosmos 468 Rocket 4.1 20:31:38 10° NNW 20:36:56 74° WSW 20:39:43 28° S
Cosmos 1980 Rocket 3.8 20:33:16 10° NW 20:38:08 30° WSW 20:42:56 10° SSW
Resurs 01 Rocket 2.6 20:34:56 16° SSW 20:38:11 45° W 20:42:27 10° NNW
Iridium 4 Rocket 4.2 20:38:43 25° ENE 20:38:43 25° ENE 20:41:53 10° NNE
Cosmos 44 3.4 20:33:44 10° NNW 20:38:42 73° NE 20:40:36 39° SE
Lacrosse 5 2.1 20:34:55 10° NW 20:39:56 62° SW 20:41:50 36° SSE
Cosmos 1602 4.0 20:37:46 20° SSW 20:40:24 66° W 20:44:20 10° N
CARTOSAT-1 4.0 20:40:31 39° E 20:41:17 44° ENE 20:45:25 10° N
Cosmos 1447 Rocket 4.5 20:35:07 10° N 20:41:30 88° W 20:45:25 25° S
Cosmos 1153 Rocket 4.4 20:36:52 17° S 20:41:48 81° E 20:48:02 10° N
GP-B 3.8 20:41:01 10° N 20:45:21 53° W 20:48:37 17° SSW
Cosmos 1933 Rocket 4.1 20:42:59 13° SSW 20:46:53 57° W 20:51:17 10° N
Cosmos 405 Rocket 4.1 20:50:04 11° SW 20:53:20 36° WNW 20:56:51 10° N
Spot 2 Rocket 3.6 20:51:17 34° S 20:53:33 75° WSW 20:58:39 10° NNW
Cosmos 1814 Rocket 4.1 20:50:26 10° NNW 20:55:37 62° ENE 20:56:56 46° ESE
COSMOS 2428 4.4 20:51:19 10° N 20:55:40 21° NE 20:57:48 18° ENE
Cosmos 1802 Rocket 4.2 20:54:58 38° SE 20:56:56 51° E 21:03:02 10° NNE
Cosmos 1869 Rocket 3.4 20:57:44 58° SSE 20:58:30 75° E 21:02:58 10° NNE
Cosmos 1515 4.0 20:55:13 10° NNW 20:59:01 62° W 20:59:36 53° SW
CENTAUR R/B 3.1 20:53:24 10° SW 20:59:17 58° NW 21:06:18 10° NNE
Okean 1-7 3.1 20:56:36 10° NNW 21:00:53 70° W 21:01:52 50° SSW
Cosmos 1437 Rocket 3.4 21:03:05 10° NNW 21:06:44 46° W 21:07:19 42° SW
Cosmos 1763 Rocket 4.4 21:06:06 10° NNW 21:11:06 43° WSW 21:13:14 29° SSW
Cosmos 1703 Rocket 4.3 21:06:59 10° NNW 21:11:10 48° W 21:12:20 37° SW
Cosmos 1570 Rocket 4.1 21:08:21 10° NNW 21:13:41 76° WSW 21:14:58 52° S
Cosmos 2333 Rocket 3.2 21:08:46 10° N 21:13:57 33° NE 21:15:19 29° E
ATLAS 5 CENTAUR R/B 3.0 21:11:15 10° NNW 21:14:05 41° NE 21:14:58 37° E
SPOT 5 2.4 21:17:39 82° SSE 21:17:50 90° E 21:22:17 10° NNW
Meteor 1-5 Rocket 4.3 21:18:35 41° S 21:20:48 90° W 21:26:45 10° N
Cosmos 2208 Rocket 4.0 21:19:58 10° NNW 21:25:11 72° WSW 21:25:57 61° SSW
Cosmos 1733 Rocket 4.0 21:29:41 38° NE 21:29:41 38° NE 21:32:48 10° NNE
Meteor 1-11 Rocket 3.6 21:31:46 66° SSE 21:32:32 77° E 21:38:21 10° NNE
Cosmos 968 Rocket 4.4 21:37:25 34° ENE 21:37:25 34° ENE 21:40:48 10° NNE
Lacrosse 4 Rocket 2.3 21:37:37 41° NNE 21:37:37 41° NNE 21:40:24 10° NNE
Tsikada Rocket 4.0 21:31:41 10° N 21:37:58 62° E 21:38:46 57° ESE
Cosmos 2100 Rocket 4.4 21:36:57 30° SW 21:39:55 59° WNW 21:46:00 10° N
USA 267 3.4 21:35:40 10° NE 21:42:11 74° NW 21:48:42 10° WSW
SL-4 R/B 3.4 21:39:47 10° NW 21:42:58 31° N 21:42:58 31° N
Meteor 2-4 Rocket 4.4 21:37:58 10° NNW 21:43:15 44° W 21:44:39 37° SW
Cosmos 540 Rocket 4.2 21:38:57 10° NNW 21:43:49 42° WSW 21:44:28 40° WSW
Cosmos 2173 Rocket 4.4 21:41:11 33° SW 21:43:54 59° W 21:49:57 10° N
Cosmos 2219 Rocket 2.7 21:38:23 10° NNW 21:43:54 47° ENE 21:44:23 46° ENE
SL-16 R/B 3.6 21:42:05 10° NW 21:46:52 28° WSW 21:48:19 25° SW
Cosmos 1242 Rocket 4.2 21:48:50 10° N 21:50:53 32° N 21:50:53 32° N
Cosmos 1725 Rocket 3.9 21:55:18 63° SSW 21:56:24 84° W 22:02:47 10° N
ERS-1 Rocket 4.0 21:56:14 34° WSW 21:56:53 35° W 22:01:29 10° NNW
Meteor 1-23 Rocket 4.1 21:51:13 10° N 21:57:04 81° ENE 21:57:14 80° ESE
Cosmos 2322 3.5 21:51:39 10° NNW 21:57:21 84° ENE 21:57:25 84° E
Cosmos 1833 4.5 21:58:12 45° WSW 21:59:47 63° WNW 22:05:26 10° NNE
SL-08 R/B 4.4 21:59:40 62° SW 22:00:39 76° W 22:06:47 10° N
Cosmos 1536 4.1 22:03:05 38° NNW 22:03:05 38° NNW 22:05:48 10° N
Cosmos 2322 Rocket 3.7 21:59:29 10° NW 22:04:04 26° WSW 22:05:03 24° WSW
Cosmos 2016 Rocket 4.3 22:02:20 45° SW 22:04:07 62° W 22:10:28 10° N
Terra 2.7 22:06:49 42° W 22:06:49 42° W 22:11:08 10° NNW
Cosmos 2333 4.2 22:06:28 10° NNW 22:12:06 75° W 22:12:06 75° W
Cosmos 2360 Rocket 3.0 22:08:14 10° NW 22:13:29 39° WSW 22:13:33 39° WSW
SL-16 R/B 4.5 22:12:07 10° N 22:15:16 15° NE 22:17:41 12° ENE
USA 234 3.1 22:16:20 74° SSE 22:16:54 81° SW 22:23:29 10° NW
ATLAS 3B R/B 3.6 22:15:30 10° WSW 22:21:47 45° NW 22:28:10 10° NNE
MOS 1-B Rocket 3.8 22:17:42 10° NNE 22:23:10 84° NNW 22:23:10 84° NNW
Cosmos 2297 Rocket 3.9 22:32:12 21° ENE 22:32:12 21° ENE 22:34:32 10° NE
Cosmos 2233 Rocket 4.1 22:34:08 65° WSW 22:34:36 67° W 22:40:55 10° N
Thor Agena Rocket 4.1 22:31:10 10° NNE 22:35:03 53° NNE 22:35:03 53° NNE
Cosmos 1980 4.3 22:31:42 10° NNW 22:36:58 47° NE 22:36:58 47° NE
Timation 2 Rocket 4.5 22:39:51 46° ENE 22:39:51 46° ENE 22:44:17 10° NE
COSMOS 2428 3.0 22:34:49 10° NNW 22:39:48 64° WNW 22:39:48 64° WNW
Cosmos 2219 4.5 22:46:31 30° ENE 22:46:31 30° ENE 22:49:39 10° NE
Cosmos 44 Rocket 4.3 22:39:30 10° NW 22:42:56 43° NW 22:42:56 43° NW
Cosmos 2237 Rocket 2.8 22:39:28 10° NNW 22:44:34 49° NE 22:44:34 49° NE
Cosmos 1464 Rocket 4.3 22:46:12 55° ENE 22:46:12 55° ENE 22:51:32 10° NNE
NOSS 0 Rocket 4.0 22:45:57 10° NNW 22:51:50 78° N 22:51:50 78° N
Nadezhda 4 Rocket 4.5 22:49:11 10° N 22:54:56 49° ENE 22:54:56 49° ENE
Cosmos 2333 Rocket 3.2 22:52:56 10° NW 22:57:19 39° W 22:57:19 39° W
ALOS 2 4.3 23:17:00 31° NNW 23:17:00 31° NNW 23:19:21 10° NNW
Lacrosse 4 Rocket 4.2 23:13:52 11° WNW 23:15:28 13° NW 23:17:34 10° NNW
Cosmos 2034 Rocket 4.1 23:19:27 69° NE 23:19:27 69° NE 23:25:07 10° N
Cosmos 2227 Rocket 3.1 23:21:59 41° NE 23:21:59 41° NE 23:25:50 10° NNE
Cosmos 2219 Rocket 3.8 23:22:50 10° NW 23:26:05 25° WNW 23:26:05 25° WNW
Cosmos 1607 4.1 23:41:19 10° NNW 23:47:26 75° NNE 23:47:26 75° NNE
